Flag for Canada Weather past 2 weeks in Rankin Inlet, Nunavut Territory, Canada

Now
64 °F

Passing clouds.


Feels Like: 64 °F
Forecast: N/A
Wind: 6 mph from South

Location: Rankin Inlet

Current Time: Jul 24, 2014 at 6:48:13 PM

Latest Report: Jul 24, 2014 at 6:00 PM


Visibility: 15 mi

Pressure: 29.90 "Hg

Humidity: 49%

Dew point: 45 °F

Location of Rankin InletLocation

Historic Weather in Rankin Inlet — Graph

°F

Rankin Inlet temperature yesterday

Maximum temperature yesterday: 64 °F (at 4:00 PM)
Minimum temperature yesterday: 48 °F (at 12:00 AM)
Average temperature yesterday: 58 °F

Past Weeks' High & Low Weather Summary

 TemperatureHumidityPressure
High75 °F (Jul 15, 5:00 PM)100% (Jul 10, 3:00 AM)30.27 "Hg (Jul 10, 3:00 AM)
Low41 °F (Jul 11, 12:00 AM)38% (Jul 24, 5:00 PM)29.23 "Hg (Jul 17, 8:00 AM)
Average53 °F76%29.76 "Hg
* Reported Jul 9 5:00 PM — Jul 24 5:00 PM, Rankin Inlet, Weather by CustomWeather, © 2014

Note: Actual official high and low records may vary slightly from our data, if they occured in-between our weather recording intervals... More about our weather records

Advertising

Rankin Inlet weather history for previous 24 hours

 ConditionsComfort  
Time TempWeatherWind HumidityBarometerVisibility
5:00 PM
Jul 24
70 °FSunny.7 mph38%29.90 "Hg15 mi
4:00 PM66 °FSunny.6 mph46%29.90 "Hg15 mi
3:00 PM66 °FSunny.8 mph49%29.91 "Hg15 mi
2:00 PM66 °FSunny.9 mph46%29.91 "Hg15 mi
1:00 PM68 °FSunny.14 mph43%29.90 "Hg15 mi
12:00 PM66 °FSunny.12 mph46%29.92 "Hg15 mi
11:00 AM64 °FSunny.13 mph46%29.93 "Hg15 mi
10:00 AM63 °FSunny.15 mph52%29.94 "Hg15 mi
9:00 AM59 °FPassing clouds.14 mph63%29.95 "Hg15 mi
8:00 AM57 °FPassing clouds.12 mph72%29.96 "Hg15 mi
7:00 AM54 °FPassing clouds.10 mph82%29.96 "Hg15 mi
6:00 AM52 °FPassing clouds.8 mph82%29.96 "Hg15 mi
5:00 AM50 °FPassing clouds.8 mph88%29.95 "Hg15 mi
4:00 AM48 °FPassing clouds.8 mph94%29.95 "Hg15 mi
3:00 AM52 °FPassing clouds.12 mph82%29.95 "Hg15 mi
2:00 AM52 °FPassing clouds.14 mph88%29.94 "Hg15 mi
1:00 AM54 °FPassing clouds.13 mph82%29.94 "Hg15 mi
12:00 AM55 °FPassing clouds.13 mph77%29.94 "Hg15 mi
11:00 PM
Jul 23
55 °FPassing clouds.12 mph72%29.95 "Hg15 mi
10:00 PM57 °FPassing clouds.12 mph67%29.96 "Hg15 mi
9:00 PM61 °FSunny.10 mph63%29.97 "Hg15 mi
8:00 PM63 °FSunny.16 mph56%29.97 "Hg15 mi
7:00 PM64 °FSunny.18 mph52%29.97 "Hg15 mi
6:00 PM64 °FSunny.18 mph52%29.98 "Hg15 mi
Weather by CustomWeather, © 2014

See weather overviewHow to use our weather pages